Tracking 30970 objects as of 3-Jul-2025
HD Live streaming from Space Station
objects crossing your sky now

FREGAT R/B

Track FREGAT R/B now!
10-day predictions


NORAD ID: 54154
Int'l Code: 2022-139E
Perigee: 8,115.6 km
Apogee: 8,129.1 km
Inclination: 90.0 °
Period: 289.4 minutes
Semi major axis: 14493 km
RCS: Unknown
Launch date: October 22, 2022
Source: Commonwealth of Independent States (former USSR) (CIS)
Launch site: VOSTOCHNY COSMODROME (VOSTO)

Note: This is a ROCKET BODY
Your satellite tracking list
Your tracking list is empty




NASA's NSSDC Master Catalog

Two Line Element Set (TLE):
1 54154U 22139E   25180.32918924  .00000006  00000-0  00000-0 0  9996
2 54154  89.9684  96.7168 0004655 141.4710 218.6228  4.97564247 46344
Source of the keplerian elements: AFSPC